Hourly Data Report for November 09, 2017

All times are specified in Local Standard Time (LST). Add 1 hour to adjust for Daylight Saving Time where and when it is observed.

GREENWOOD A
NOVA SCOTIA

44°59'00.000" N
64°55'00.000" W
28.00 m
8202000
71397
YZX

Download Data

Hourly Data (November 2017)
Hourly Data Report for November 9, 2017
Temp Definition
°C
Dew Point Temp Definition
°C
Rel Hum Definition
%
Wind Dir Definition
10's deg

Wind Spd Definition
km/h
Visibility Definition
km
Stn Press Definition
kPa
Hmdx Definition


Wind Chill Definition


Weather Definition


TIME
00:00 4.5 1.6 81 4 7 24.1 102.07     Cloudy
01:00 4.3 1.6 83 8 4 24.1 102.05     Cloudy
02:00 4.5 1.6 81 7 4 24.1 102.06     Cloudy
03:00 4.2 2.0 86 34 4 24.1 102.07     Mostly Cloudy
04:00 3.9 1.6 85 2 7 24.1 102.05     Mostly Cloudy
05:00 4.2 1.2 81 3 9 24.1 102.06     Mostly Cloudy
06:00 4.0 0.5 78 6 11 24.1 102.09     Mostly Cloudy
07:00 4.0 0.5 78 4 6 24.1 102.12     Mostly Cloudy
08:00 3.8 0.3 78 9 4 24.1 102.13     Mostly Cloudy
09:00 4.3 -0.2 73 8 7 24.1 102.13     Mostly Cloudy
10:00 5.0 -0.4 68 8 6 24.1 102.13     Mostly Cloudy
11:00 5.2 -1.6 61 7 6 24.1 102.09     Mostly Cloudy
12:00 5.4 -1.9 59 20 6 24.1 102.02     Mainly Clear
13:00 5.8 -1.7 59   0 24.1 101.94     Mostly Cloudy
14:00 6.4 -0.9 60 28 4 24.1 101.88     Cloudy
15:00 6.3 -1.0 60 34 6 24.1 101.87     Cloudy
16:00 6.3 -0.7 61 5 4 24.1 101.83     Cloudy
17:00 6.2 -0.3 63 9 6 24.1 101.80     Cloudy
18:00 5.7 -0.1 66 7 7 24.1 101.78     Cloudy
19:00 5.7 0.4 69 11 4 24.1 101.75     Cloudy
20:00 5.6 1.1 73 7 4 24.1 101.70     Cloudy
21:00 5.5 1.5 75 15 9 24.1 101.61     Mostly Cloudy
22:00 4.7 0.8 76 5 4 24.1 101.57     Mostly Cloudy
23:00 4.7 1.3 79 10 7 24.1 101.48     Mostly Cloudy

Notes on Data Quality.

Legend

  • E = Estimated
  • M = Missing
  • NA = Not Available
  • ‡ = Partner data that is not subject to review by the National Climate Archives
Date modified: